This is the latest recevied weather packets stored in our database for station/object ES2ADF-5. If no packets are shown the sender has not sent any weather packets the latest 10 day(s).
| Time | Temp. | Humidity | Pressure | Rain* | Wind** | Luminosity | Snow |
|---|---|---|---|---|---|---|---|
| 1787922001 | 20° C | 71% | 1024.5 hPa | 0 mm | - | - | - |
| 1787921701 | 20° C | 70% | 1024.7 hPa | 0 mm | - | - | - |
| 1787921401 | 20° C | 69% | 1024.8 hPa | 0 mm | - | - | - |
| 1787921100 | 20° C | 69% | 1025 hPa | 0 mm | - | - | - |
| 1787920800 | 20° C | 69% | 1025 hPa | 0 mm | - | - | - |
| 1787920500 | 20.56° C | 69% | 1024.9 hPa | 0 mm | - | - | - |
| 1787920200 | 20.56° C | 69% | 1025 hPa | 0 mm | - | - | - |
| 1787919899 | 20.56° C | 68% | 1025 hPa | 0 mm | - | - | - |
| 1787919599 | 20.56° C | 68% | 1025.1 hPa | 0 mm | - | - | - |
| 1787919299 | 20° C | 68% | 1025.1 hPa | 0 mm | - | - | - |
| 1787918998 | 20° C | 67% | 1025.2 hPa | 0 mm | - | - | - |
| 1787918698 | 20.56° C | 66% | 1025.1 hPa | 0 mm | - | - | - |
| 1787918398 | 20.56° C | 66% | 1025.1 hPa | 0 mm | - | - | - |
| 1787918097 | 20.56° C | 65% | 1025 hPa | 0 mm | - | - | - |
| 1787917797 | 21.11° C | 65% | 1025.4 hPa | 0 mm | - | - | - |
| 1787917497 | 21.11° C | 64% | 1025.2 hPa | 0 mm | - | - | - |
| 1787917197 | 21.67° C | 63% | 1025.4 hPa | 0 mm | - | - | - |
| 1787916896 | 21.11° C | 63% | 1025.2 hPa | 0 mm | - | - | - |
| 1787916596 | 21.67° C | 63% | 1025 hPa | 0 mm | - | - | - |
| 1787916296 | 21.67° C | 62% | 1025.2 hPa | 0 mm | - | - | - |
| 1787915995 | 21.67° C | 61% | 1025.4 hPa | 0 mm | - | - | - |
| 1787915695 | 21.67° C | 61% | 1025.4 hPa | 0 mm | - | - | - |
| 1787915395 | 22.22° C | 62% | 1025.5 hPa | 0 mm | - | - | - |
| 1787915094 | 22.22° C | 62% | 1025.6 hPa | 0 mm | - | - | - |
| 1787914794 | 22.22° C | 62% | 1025.5 hPa | 0 mm | - | - | - |
* Rain latest hour (hover to see other rain measurements)
** Current wind speed in m/s (hover to see current wind gust speed)